Location: Ferma
(41.9500°N, 44.5167°E)
Time: 13:26:12
(UTC+00:00)

Cosmos 1844 - Pass Details

Date: 24 October 2021
Orbit: 822 x 868 km, 70.9° (Epoch: 07 December)

Event Time Altitude Azimuth Distance (km) Brightness Sun altitude
Rises 16:32:59 0° 332° (NNW) 3,457 7.4 -27.8°
Reaches altitude 10° 16:35:29 10° 330° (NNW) 2,513 6.6 -28.2°
Maximum altitude 16:41:11 64° 250° (WSW) 950 4.0 -29.3°
Enters shadow 16:42:07 55° 207° (SSW) 1,019 4.1 -29.5°
